�������l�o���
Date,Time,MP-1(��Sv/h),MP-2(��Sv/h),MP-3(��Sv/h),MP-4(��Sv/h),MP-5(��Sv/h),MP-6(��Sv/h),MP-7(��Sv/h),MP-8(��Sv/h),����,����(m/s),���J
2017/10/22,00:00,0.867,1.363,0.892,1.652,1.089,0.489,0.884,0.826,�k��,3.5,�L
2017/10/22,00:10,0.868,1.363,0.891,1.652,1.088,0.491,0.883,0.827,��,2.9,�L
2017/10/22,00:20,0.868,1.364,0.893,1.653,1.092,0.490,0.885,0.826,��,3.5,�L
2017/10/22,00:30,0.869,1.363,0.890,1.653,1.093,0.490,0.883,0.826,���k��,3.8,�L
2017/10/22,00:40,0.869,1.364,0.890,1.653,1.094,0.490,0.883,0.827,��,2.8,�L
2017/10/22,00:50,0.870,1.366,0.890,1.652,1.093,0.490,0.883,0.827,��,2.6,�L
2017/10/22,01:00,0.868,1.368,0.893,1.654,1.093,0.492,0.886,0.825,��,2.6,�L
2017/10/22,01:10,0.870,1.364,0.890,1.655,1.091,0.493,0.885,0.827,��,2.8,�L
2017/10/22,01:20,0.872,1.368,0.893,1.655,1.092,0.490,0.886,0.827,��,2.8,�L
2017/10/22,01:30,0.870,1.366,0.892,1.653,1.094,0.492,0.886,0.826,���쓌,2.2,�L
2017/10/22,01:40,0.870,1.362,0.892,1.654,1.092,0.489,0.883,0.828,���쓌,3.5,�L
2017/10/22,01:50,0.871,1.360,0.890,1.648,1.089,0.490,0.885,0.827,���쓌,2.6,�L
2017/10/22,02:00,0.870,1.360,0.892,1.647,1.087,0.490,0.885,0.825,���쓌,3.1,�L
2017/10/22,02:10,0.868,1.353,0.891,1.648,1.086,0.489,0.884,0.825,���쓌,2.9,�L
2017/10/22,02:20,0.869,1.354,0.890,1.645,1.085,0.489,0.884,0.826,���쓌,3.7,�L
2017/10/22,02:30,0.867,1.354,0.890,1.645,1.084,0.488,0.882,0.825,��,3.6,�L
2017/10/22,02:40,0.864,1.351,0.890,1.645,1.085,0.489,0.884,0.822,���쓌,3.7,�L
2017/10/22,02:50,0.865,1.351,0.890,1.644,1.082,0.488,0.881,0.823,��,4.7,�L
2017/10/22,03:00,0.863,1.352,0.889,1.643,1.084,0.488,0.881,0.822,��,5.7,�L
2017/10/22,03:10,0.864,1.349,0.890,1.639,1.082,0.489,0.883,0.824,��,5.2,�L
2017/10/22,03:20,0.863,1.353,0.889,1.641,1.083,0.488,0.882,0.822,��,5.1,�L
2017/10/22,03:30,0.864,1.352,0.888,1.640,1.081,0.488,0.882,0.821,���k��,4.2,�L
2017/10/22,03:40,0.862,1.353,0.887,1.642,1.082,0.488,0.882,0.820,��,4.1,�L
2017/10/22,03:50,0.863,1.350,0.887,1.643,1.082,0.489,0.881,0.822,��,4.6,�L
2017/10/22,04:00,0.862,1.353,0.887,1.640,1.082,0.488,0.881,0.822,��,4.6,�L
2017/10/22,04:10,0.862,1.351,0.886,1.640,1.082,0.490,0.881,0.823,��,5.3,�L
2017/10/22,04:20,0.861,1.353,0.885,1.641,1.080,0.487,0.880,0.822,��,5.2,�L
2017/10/22,04:30,0.860,1.351,0.886,1.639,1.080,0.488,0.881,0.823,��,6.0,�L
2017/10/22,04:40,0.862,1.353,0.887,1.639,1.079,0.489,0.882,0.822,��,5.7,�L
2017/10/22,04:50,0.862,1.352,0.887,1.641,1.083,0.488,0.881,0.822,��,5.0,�L
2017/10/22,05:00,0.861,1.351,0.886,1.641,1.083,0.488,0.881,0.821,��,4.6,�L
2017/10/22,05:10,0.862,1.350,0.887,1.642,1.080,0.489,0.881,0.821,��,4.8,�L
2017/10/22,05:20,0.861,1.350,0.886,1.640,1.079,0.487,0.883,0.822,���k��,4.5,�L
2017/10/22,05:30,0.860,1.349,0.887,1.639,1.076,0.489,0.881,0.821,���k��,4.2,�L
2017/10/22,05:40,0.860,1.350,0.885,1.639,1.078,0.487,0.880,0.820,���k��,4.5,�L
2017/10/22,05:50,0.861,1.348,0.885,1.638,1.076,0.487,0.878,0.820,���k��,4.5,�L
2017/10/22,06:00,0.860,1.349,0.883,1.639,1.077,0.487,0.880,0.822,���k��,4.4,�L
2017/10/22,06:10,0.861,1.350,0.884,1.639,1.079,0.487,0.880,0.821,���k��,4.9,�L
2017/10/22,06:20,0.861,1.350,0.883,1.641,1.079,0.487,0.879,0.822,���k��,5.2,�L
2017/10/22,06:30,0.861,1.351,0.884,1.639,1.078,0.488,0.880,0.821,���k��,4.7,�L
2017/10/22,06:40,0.862,1.354,0.885,1.642,1.079,0.487,0.881,0.821,���k��,4.3,�L
2017/10/22,06:50,0.862,1.353,0.886,1.643,1.080,0.488,0.880,0.819,���k��,4.4,�L
2017/10/22,07:00,0.860,1.350,0.882,1.642,1.080,0.489,0.881,0.820,���k��,4.4,�L
2017/10/22,07:10,0.858,1.349,0.883,1.638,1.074,0.487,0.878,0.822,���k��,4.6,�L
2017/10/22,07:20,0.858,1.345,0.883,1.634,1.074,0.484,0.879,0.820,�k��,4.6,�L
2017/10/22,07:30,0.859,1.345,0.882,1.635,1.074,0.486,0.878,0.819,���k��,4.6,�L
2017/10/22,07:40,0.858,1.344,0.881,1.634,1.072,0.486,0.877,0.818,�k��,5.0,�L
2017/10/22,07:50,0.857,1.347,0.882,1.637,1.075,0.486,0.879,0.820,�k��,4.7,�L
2017/10/22,08:00,0.859,1.345,0.882,1.635,1.074,0.485,0.878,0.818,���k��,5.1,�L
2017/10/22,08:10,0.857,1.345,0.881,1.634,1.072,0.486,0.877,0.819,���k��,4.8,�L
2017/10/22,08:20,0.857,1.344,0.880,1.630,1.071,0.486,0.879,0.818,�k��,4.8,�L
2017/10/22,08:30,0.855,1.338,0.877,1.627,1.069,0.485,0.879,0.819,���쓌,5.9,�L
2017/10/22,08:40,0.853,1.336,0.876,1.624,1.066,0.485,0.874,0.819,�k��,4.8,�L
2017/10/22,08:50,0.849,1.334,0.876,1.625,1.066,0.486,0.877,0.817,���k��,5.5,�L
2017/10/22,09:00,0.850,1.336,0.874,1.627,1.065,0.484,0.875,0.818,�k��,4.4,�L
2017/10/22,09:10,0.852,1.338,0.875,1.625,1.063,0.483,0.875,0.818,�k��,6.0,�L
2017/10/22,09:20,0.853,1.341,0.876,1.625,1.067,0.485,0.874,0.818,�k��,5.8,�L
2017/10/22,09:30,0.855,1.339,0.876,1.627,1.064,0.484,0.875,0.818,�k��,6.0,�L
2017/10/22,09:40,0.857,1.344,0.876,1.629,1.066,0.486,0.875,0.818,�k��,6.0,�L
2017/10/22,09:50,0.858,1.342,0.879,1.628,1.065,0.485,0.876,0.817,���k��,5.5,�L
2017/10/22,10:00,0.858,1.343,0.876,1.630,1.065,0.484,0.876,0.818,���k��,6.1,�L
2017/10/22,10:10,0.857,1.341,0.875,1.627,1.066,0.485,0.876,0.818,���k��,5.7,�L
2017/10/22,10:20,0.855,1.334,0.873,1.627,1.063,0.483,0.875,0.818,-,CALM,�L
2017/10/22,10:30,0.854,1.335,0.872,1.622,1.060,0.483,0.874,0.815,-,CALM,�L
2017/10/22,10:40,0.849,1.335,0.873,1.624,1.061,0.484,0.876,0.818,��,7.3,�L
2017/10/22,10:50,0.851,1.333,0.871,1.623,1.061,0.484,0.875,0.818,��,8.5,�L
2017/10/22,11:00,0.851,1.333,0.869,1.621,1.059,0.484,0.873,0.817,���k��,7.0,�L
2017/10/22,11:10,0.850,1.332,0.872,1.618,1.060,0.485,0.875,0.818,�k��,6.1,�L
2017/10/22,11:20,0.850,1.333,0.867,1.615,1.055,0.483,0.873,0.817,���k��,8.9,�L
2017/10/22,11:30,0.851,1.333,0.867,1.617,1.058,0.484,0.873,0.817,���k��,6.2,�L
2017/10/22,11:40,0.851,1.334,0.869,1.620,1.058,0.484,0.872,0.818,���k��,5.8,�L
2017/10/22,11:50,0.851,1.333,0.865,1.618,1.057,0.483,0.874,0.818,���k��,7.1,�L
2017/10/22,12:00,0.852,1.331,0.865,1.616,1.054,0.484,0.873,0.816,�k��,6.2,�L
2017/10/22,12:10,0.851,1.332,0.867,1.619,1.056,0.485,0.874,0.817,�k��,6.1,�L
2017/10/22,12:20,0.853,1.333,0.868,1.620,1.058,0.484,0.872,0.818,�k�k��,7.3,�L
2017/10/22,12:30,0.852,1.335,0.865,1.621,1.058,0.484,0.877,0.817,�k�k��,6.9,�L
2017/10/22,12:40,0.851,1.339,0.866,1.619,1.058,0.484,0.875,0.819,�k�k��,7.5,�L
2017/10/22,12:50,0.854,1.336,0.866,1.617,1.058,0.485,0.875,0.817,�k�k��,7.2,�L
2017/10/22,13:00,0.851,1.336,0.864,1.617,1.056,0.486,0.875,0.818,�k�k��,7.0,�L
2017/10/22,13:10,0.853,1.333,0.866,1.615,1.059,0.483,0.873,0.816,�k�k��,8.3,�L
2017/10/22,13:20,0.848,1.327,0.864,1.610,1.052,0.484,0.873,0.817,�k�k��,7.9,�L
2017/10/22,13:30,0.846,1.323,0.860,1.611,1.049,0.482,0.872,0.816,�k,6.7,�L
2017/10/22,13:40,0.847,1.324,0.856,1.603,1.046,0.482,0.871,0.814,�k�k��,6.7,�L
2017/10/22,13:50,0.840,1.319,0.852,1.599,1.045,0.480,0.868,0.814,�k�k��,5.5,�L
2017/10/22,14:00,0.843,1.321,0.850,1.599,1.043,0.482,0.870,0.814,�k�k��,8.9,�L
2017/10/22,14:10,0.846,1.326,0.848,1.601,1.049,0.483,0.870,0.816,�k�k��,9.4,�L
2017/10/22,14:20,0.849,1.326,0.849,1.601,1.048,0.482,0.870,0.814,�k�k��,8.2,�L
2017/10/22,14:30,0.844,1.321,0.846,1.599,1.042,0.481,0.870,0.816,�k�k��,8.9,�L
2017/10/22,14:40,0.844,1.318,0.844,1.597,1.043,0.481,0.867,0.815,�k�k��,10.2,�L
2017/10/22,14:50,0.841,1.317,0.842,1.593,1.041,0.481,0.868,0.814,�k,8.2,�L
2017/10/22,15:00,0.839,1.311,0.835,1.584,1.036,0.482,0.866,0.812,�k,12.0,�L
2017/10/22,15:10,0.836,1.308,0.831,1.579,1.035,0.480,0.865,0.810,�k�k��,6.2,�L
2017/10/22,15:20,0.837,1.314,0.830,1.584,1.035,0.480,0.866,0.811,�k�k��,8.6,�L
2017/10/22,15:30,0.836,1.310,0.828,1.578,1.030,0.481,0.863,0.812,�k�k��,7.8,�L
2017/10/22,15:40,0.836,1.311,0.826,1.575,1.028,0.479,0.863,0.809,�k�k��,9.3,�L
2017/10/22,15:50,0.834,1.307,0.823,1.570,1.023,0.478,0.862,0.810,�k��,5.5,�L
2017/10/22,16:00,0.836,1.307,0.820,1.570,1.023,0.476,0.861,0.811,��,4.6,�L
2017/10/22,16:10,0.832,1.301,0.816,1.565,1.018,0.476,0.859,0.808,�k,5.3,�L
2017/10/22,16:20,0.830,1.299,0.807,1.559,1.017,0.476,0.858,0.805,-,CALM,�L
2017/10/22,16:30,0.829,1.299,0.799,1.554,1.010,0.475,0.856,0.805,�k��,7.7,�L
2017/10/22,16:40,0.828,1.298,0.794,1.551,1.007,0.475,0.853,0.802,-,CALM,�L
2017/10/22,16:50,0.827,1.298,0.796,1.549,1.006,0.475,0.855,0.804,-,CALM,�L
2017/10/22,17:00,0.830,1.300,0.796,1.549,1.006,0.476,0.855,0.803,-,CALM,�L
2017/10/22,17:10,0.828,1.297,0.796,1.546,1.006,0.474,0.855,0.803,�k�k��,8.2,�L
2017/10/22,17:20,0.831,1.301,0.797,1.551,1.008,0.477,0.854,0.803,�k��,8.8,�L
2017/10/22,17:30,0.827,1.299,0.797,1.549,1.006,0.475,0.853,0.803,�k,8.5,�L
2017/10/22,17:40,0.831,1.300,0.797,1.549,1.006,0.475,0.853,0.804,�k�k��,7.3,�L
2017/10/22,17:50,0.831,1.302,0.798,1.550,1.008,0.477,0.853,0.804,�k,11.8,�L
2017/10/22,18:00,0.832,1.303,0.801,1.551,1.007,0.475,0.851,0.804,�k�k��,12.8,�L
2017/10/22,18:10,0.834,1.308,0.808,1.559,1.010,0.478,0.855,0.807,�k,11.6,�L
2017/10/22,18:20,0.836,1.303,0.808,1.558,1.010,0.478,0.853,0.804,�k�k��,13.1,�L
2017/10/22,18:30,0.832,1.299,0.803,1.546,1.005,0.475,0.851,0.802,-,CALM,�L
2017/10/22,18:40,0.827,1.297,0.799,1.547,1.004,0.476,0.852,0.803,�k,9.9,�L
2017/10/22,18:50,0.833,1.301,0.801,1.553,1.009,0.477,0.850,0.803,�k,9.6,�L
2017/10/22,19:00,0.833,1.295,0.798,1.543,0.999,0.473,0.851,0.804,�k,10.5,�L
2017/10/22,19:10,0.834,1.305,0.803,1.552,1.008,0.477,0.853,0.804,�k,12.7,�L
2017/10/22,19:20,0.840,1.314,0.810,1.565,1.015,0.480,0.855,0.806,�k,11.7,�L
2017/10/22,19:30,0.846,1.317,0.824,1.570,1.020,0.480,0.860,0.809,�k,14.1,�L
2017/10/22,19:40,0.846,1.315,0.827,1.571,1.020,0.479,0.858,0.810,�k�k��,12.2,�L
2017/10/22,19:50,0.846,1.320,0.830,1.575,1.023,0.480,0.858,0.810,�k�k��,12.2,�L
2017/10/22,20:00,0.837,1.304,0.824,1.565,1.013,0.478,0.854,0.807,-,CALM,�L
2017/10/22,20:10,0.834,1.302,0.817,1.555,1.014,0.476,0.853,0.805,-,CALM,�L
2017/10/22,20:20,0.828,1.291,0.804,1.547,1.006,0.476,0.850,0.802,�k,8.9,�L
2017/10/22,20:30,0.817,1.279,0.780,1.529,0.994,0.470,0.845,0.798,�k�k��,12.7,�L
2017/10/22,20:40,0.823,1.288,0.778,1.536,0.995,0.468,0.844,0.797,�k,9.2,�L
2017/10/22,20:50,0.828,1.293,0.784,1.539,0.994,0.469,0.847,0.798,�k,9.8,�L
2017/10/22,21:00,0.813,1.273,0.771,1.520,0.979,0.451,0.841,0.791,�k��,7.5,�L
2017/10/22,21:10,0.818,1.279,0.763,1.522,0.977,0.451,0.843,0.792,-,CALM,�L
2017/10/22,21:20,0.822,1.282,0.755,1.524,0.977,0.447,0.845,0.796,�k,8.3,�L
2017/10/22,21:30,0.828,1.292,0.753,1.535,0.979,0.455,0.845,0.797,�k�k��,6.4,�L
2017/10/22,21:40,0.828,1.287,0.749,1.534,0.981,0.452,0.845,0.797,�k�k��,7.2,�L
2017/10/22,21:50,0.833,1.298,0.750,1.543,0.987,0.462,0.848,0.801,�k,7.0,�L
2017/10/22,22:00,0.834,1.301,0.754,1.545,0.991,0.468,0.848,0.802,�k�k��,7.6,�L
2017/10/22,22:10,0.833,1.299,0.755,1.546,0.991,0.469,0.849,0.804,�k��,5.7,�L
2017/10/22,22:20,0.837,1.303,0.759,1.553,0.994,0.471,0.850,0.802,�k�k��,9.4,�L
2017/10/22,22:30,0.838,1.306,0.764,1.557,1.000,0.473,0.852,0.806,�k�k��,11.1,�L
2017/10/22,22:40,0.844,1.316,0.771,1.568,1.006,0.476,0.855,0.808,�k�k��,9.0,�L
2017/10/22,22:50,0.845,1.322,0.776,1.574,1.009,0.477,0.856,0.811,�k�k��,9.7,�L
2017/10/22,23:00,0.846,1.317,0.779,1.576,1.010,0.475,0.856,0.809,�k�k��,10.2,�L
2017/10/22,23:10,0.844,1.317,0.780,1.577,1.009,0.476,0.857,0.811,�k,8.8,�L
2017/10/22,23:20,0.847,1.324,0.788,1.578,1.013,0.477,0.859,0.812,�k�k��,9.0,�L
2017/10/22,23:30,0.850,1.321,0.789,1.582,1.015,0.477,0.859,0.812,�k,12.2,�L
2017/10/22,23:40,0.845,1.310,0.787,1.564,1.006,0.476,0.857,0.811,�k�k��,8.0,�L
2017/10/22,23:50,0.844,1.313,0.787,1.567,1.013,0.476,0.858,0.812,�k��,6.8,�L
